Retour au catalogue

FENGYUN 1C DEB

ActifSSO
NORAD 38116·DEBRIS·🇨🇳 China

Lancé May 10, 1999 depuis Taiyuan Satellite Launch Center

Loading…

Prochains Passages (prochaines 24 heures)

TLE

FraisSource: Space-Track

Époque: Sep 14, 2026, 22:29 UTC

1 38116U 99025EPM 26257.93747865  .00000358  00000-0  19235-3 0  9994
2 38116  98.6853 295.7707 0072014  75.3967  44.9670 14.17487770683977

Suivez FENGYUN 1C DEB en temps réel avec AllMySat

Download on the App Store